Wind_Speed
13 12 13 13 13 12 12 12 11 11 11 11 11 11 11 12 12 12 13 14 14 15 16 16 17 17 17 17 16 15 15 14 13 12 11 10 10 10 11 12 12 12 12
12 12 13 13 12 12 12 12 11 11 11 11 11 10 10 10 11 12 13 14 15 15 17 17 18 18 18 18 18 17 16 15 14 13 12 11 11 11 11 11 12 12 12
13 13 13 13 13 13 12 12 11 11 11 10 10 9 9 10 10 11 13 14 15 16 18 18 18 18 19 19 19 18 18 17 16 14 13 12 11 11 11 11 11 12 12
13 13 13 13 13 13 13 12 11 11 11 10 9 9 9 9 10 11 12 14 15 17 18 19 19 19 19 20 20 20 20 19 17 16 15 14 13 12 12 11 11 12 13
13 13 13 13 13 14 13 12 11 11 10 9 8 8 7 7 8 9 11 13 14 16 18 19 19 20 20 21 20 20 21 20 19 17 16 15 14 13 13 13 12 12 13
13 13 13 13 14 14 13 12 12 11 10 9 7 6 5 5 6 8 9 12 13 15 17 18 19 20 21 21 21 21 21 21 20 19 18 17 16 15 14 14 13 13 13
13 13 13 14 14 14 13 13 12 12 11 9 7 5 4 3 4 6 8 10 13 14 16 17 19 19 21 22 22 21 21 21 21 20 19 18 17 17 16 15 15 14 14
14 14 14 14 15 15 14 13 13 12 12 10 8 5 3 2 2 4 6 9 11 13 15 17 19 19 21 21 22 22 22 22 21 22 20 20 19 19 18 17 17 16 15
14 14 15 15 16 16 15 14 13 13 12 11 9 7 4 3 1 2 4 7 10 12 14 17 18 19 20 21 22 22 22 21 22 22 21 21 20 20 20 19 19 18 17
15 15 15 16 16 16 16 15 14 13 12 12 10 8 6 4 2 1 2 5 8 10 13 16 16 17 19 20 21 22 22 22 22 23 22 21 22 21 21 21 20 20 19
15 16 16 16 16 17 17 16 15 15 14 13 11 9 8 6 4 3 1 3 6 8 10 14 15 17 19 20 21 21 22 23 23 23 22 22 22 22 23 22 22 21 21
16 16 17 17 17 17 17 17 16 15 15 14 12 11 9 7 6 4 2 1 4 6 9 12 14 16 18 19 20 21 22 23 23 23 23 23 23 24 24 24 24 23 23
15 16 17 17 17 17 17 18 17 16 15 14 14 12 11 9 7 5 3 0 2 5 8 10 12 15 17 18 19 21 22 23 24 24 23 23 24 24 25 25 26 26 25
14 15 16 17 17 17 17 17 17 16 15 14 14 13 12 11 9 7 5 2 1 3 6 9 11 13 15 17 19 21 22 23 24 25 24 24 24 25 25 26 27 28 27
14 15 16 16 16 17 17 16 16 16 15 14 14 13 12 11 10 8 6 4 2 3 5 7 10 11 14 16 18 20 22 23 24 24 24 24 25 25 26 28 28 28 29
13 14 15 16 16 16 17 17 16 16 15 14 14 13 12 12 11 9 7 6 5 4 5 7 9 11 12 15 17 20 21 23 24 25 24 25 25 25 26 28 29 29 29
12 13 14 15 16 16 16 16 16 16 16 15 14 14 13 12 12 11 10 9 8 7 7 8 9 11 13 14 17 19 21 23 25 26 26 26 27 27 27 28 29 30 30
11 12 13 14 15 16 16 16 16 16 16 16 15 14 14 14 13 12 11 10 10 10 9 9 10 12 13 14 16 18 21 23 25 26 27 27 28 28 29 30 30 31 32
11 12 13 14 15 16 16 17 16 16 16 16 16 16 15 15 15 14 14 13 12 12 12 12 12 13 14 15 17 18 20 23 24 26 28 28 29 30 30 30 31 32 32
12 12 13 14 15 16 17 17 17 17 17 17 17 17 17 17 16 16 16 15 15 14 14 14 14 15 16 17 18 19 20 22 25 26 28 28 30 30 31 32 32 32 33
13 13 14 15 16 17 18 18 18 18 18 18 19 19 19 19 18 18 18 18 18 17 17 17 18 18 18 19 20 21 22 23 25 26 27 28 30 31 32 32 33 33 33
15 15 16 17 18 19 20 20 20 20 20 20 21 21 21 22 22 21 21 21 21 21 20 20 21 20 20 21 22 23 24 25 26 28 29 29 30 30 31 32 32 33 34
17 18 18 19 20 21 22 23 23 23 23 23 24 24 25 25 25 25 25 24 24 24 23 23 23 24 24 24 24 25 26 26 27 29 31 31 32 33 33 33 34 34 34
20 20 21 22 23 24 25 26 26 26 26 27 28 28 28 29 29 29 29 28 27 27 27 27 27 28 28 27 28 28 29 29 30 31 32 33 34 34 34 35 35 36 36
23 24 24 25 26 27 28 29 29 29 30 31 32 32 32 33 33 33 33 31 31 31 30 30 31 31 32 32 32 32 32 33 33 34 35 35 35 36 36 36 37 38 38
26 27 28 29 30 30 31 32 32 32 33 34 35 36 36 37 37 36 36 34 33 33 34 33 34 34 35 35 35 35 36 36 36 36 37 38 38 39 39 39 39 39 39
Wind_Direction
323 323 325 323 321 318 315 313 309 303 297 292 287 280 273 263 253 244 237 231 226 222 216 210 205 202 202 199 198 196 193 189 185 182 176 171 165 157 153 156 152 151 152
329 330 330 329 327 325 321 317 313 308 303 298 292 284 274 261 250 240 234 230 226 221 215 211 204 202 201 200 199 197 195 192 188 185 181 177 174 168 163 163 163 161 161
333 334 334 334 332 330 327 325 319 315 309 302 295 287 275 261 251 241 234 228 224 219 214 209 205 203 201 200 200 198 198 194 192 189 186 183 180 179 174 172 171 172 170
340 339 339 338 338 337 335 332 327 325 318 310 299 288 278 264 253 244 234 225 221 216 211 208 207 204 203 202 200 199 199 196 194 192 189 187 185 186 181 176 175 177 175
347 346 345 344 345 344 344 343 338 334 328 321 311 295 281 268 256 243 231 222 217 214 211 208 206 205 203 202 201 200 200 198 196 196 193 191 191 192 187 182 179 180 178
356 354 355 354 352 351 353 354 350 345 341 336 328 306 284 268 256 238 227 218 214 212 209 207 206 204 203 202 202 201 200 201 200 199 198 197 198 196 191 189 188 186 186
5 5 4 2 359 359 0 1 360 358 355 353 349 330 302 276 251 232 218 212 212 210 207 208 205 205 204 203 204 204 203 204 203 202 203 202 202 199 198 197 197 196 194
13 12 10 8 6 6 7 6 6 7 7 8 7 4 350 322 254 224 214 209 208 207 207 206 205 206 205 206 207 207 207 207 206 206 206 206 205 203 202 203 203 203 202
18 17 15 14 11 9 10 11 11 13 16 18 19 21 22 17 352 203 205 205 205 204 204 204 206 207 207 209 210 210 209 210 210 209 209 209 209 207 206 207 208 208 207
21 19 18 17 15 15 16 18 19 18 21 23 27 30 34 39 49 96 173 195 199 203 205 205 205 206 207 209 211 212 212 213 213 213 211 212 212 211 210 210 211 210 211
23 22 21 21 21 21 22 23 22 22 24 26 30 34 36 40 49 63 126 183 195 200 203 204 205 209 210 212 214 215 215 215 216 216 215 216 214 214 214 214 215 215 216
25 25 25 25 25 25 26 26 25 25 26 29 33 34 35 38 37 44 66 178 198 204 206 207 210 213 214 215 216 217 216 215 217 217 218 219 219 218 217 219 219 219 220
27 27 27 26 26 26 27 28 28 29 29 30 30 32 34 34 33 34 34 46 220 216 213 213 216 215 218 218 218 219 218 219 220 220 221 223 223 222 222 223 222 223 224
26 25 25 25 25 24 24 25 27 28 29 28 27 28 30 29 27 27 25 12 282 228 224 221 220 222 223 224 223 223 224 223 223 225 227 228 227 227 226 226 226 226 226
22 22 22 21 21 21 20 21 23 24 23 22 22 21 21 19 17 15 11 1 323 266 245 236 231 231 230 230 228 225 226 225 225 227 229 231 231 232 232 230 228 227 229
17 16 16 16 16 17 18 18 18 17 16 16 15 15 12 10 7 0 351 344 333 301 272 253 242 240 238 236 233 231 229 227 228 229 230 232 234 235 233 232 230 231 232
9 10 9 8 8 9 10 11 11 11 9 7 6 5 3 0 358 355 348 339 332 321 299 275 260 254 248 243 240 237 235 232 231 231 233 235 236 237 235 235 235 235 236
359 1 2 3 3 2 1 1 1 1 1 359 358 356 352 348 345 344 340 333 325 319 310 293 278 267 257 251 249 245 242 238 235 234 236 238 239 239 239 239 238 238 239
349 351 353 354 355 356 355 354 353 353 352 350 349 347 343 339 335 332 330 325 318 312 306 299 287 277 269 259 256 253 249 245 240 238 239 241 241 241 241 241 241 240 240
337 340 343 345 346 348 348 347 346 345 344 344 342 341 339 334 330 325 322 318 313 307 300 296 291 282 275 268 262 259 256 252 249 245 244 243 243 243 243 242 242 241 241
327 329 332 335 336 338 339 339 338 337 336 336 335 334 333 330 325 320 316 312 307 303 298 294 291 286 279 273 267 265 263 259 256 252 250 247 247 247 244 244 244 243 242
319 320 322 324 325 327 329 330 330 329 328 329 328 327 326 325 322 317 312 306 302 298 295 292 289 287 284 279 273 269 266 264 262 258 255 251 251 250 249 247 247 245 245
313 313 314 316 318 320 321 322 321 320 320 321 322 322 321 320 318 315 308 302 297 294 291 289 287 285 283 280 277 273 270 268 266 262 258 255 253 251 250 250 249 247 247
308 308 310 312 313 314 316 316 315 314 313 314 316 316 315 315 313 311 307 301 295 292 289 287 285 284 283 281 279 276 274 271 269 266 261 257 255 254 252 251 250 249 249
304 305 306 307 308 309 311 311 311 310 310 310 311 311 311 310 309 308 305 300 295 290 288 286 284 283 282 282 280 278 276 273 270 267 265 261 257 255 254 254 252 251 250
301 302 303 303 304 306 307 307 307 307 307 308 309 309 308 308 307 305 303 300 295 290 287 286 284 284 282 281 278 277 276 275 272 269 266 264 260 256 256 255 254 254 253
Height
5856 5854 5852 5850 5848 5846 5844 5842 5841 5840 5839 5838 5837 5837 5837 5837 5838 5839 5841 5843 5845 5848 5851 5853 5856 5860 5863 5866 5869 5872 5875 5878 5880 5882 5884 5886 5887 5888 5890 5892 5893 5895 5897
5854 5852 5850 5848 5846 5844 5842 5840 5838 5837 5836 5835 5834 5833 5833 5833 5834 5836 5837 5840 5842 5845 5848 5851 5854 5858 5861 5864 5867 5871 5874 5877 5879 5881 5884 5885 5887 5889 5890 5892 5894 5896 5898
5853 5851 5848 5846 5844 5842 5840 5837 5836 5834 5833 5831 5831 5830 5830 5830 5831 5832 5834 5837 5839 5842 5845 5848 5852 5855 5859 5862 5866 5869 5872 5876 5878 5881 5883 5885 5887 5889 5891 5892 5894 5896 5898
5852 5849 5847 5845 5843 5840 5838 5835 5833 5832 5830 5829 5828 5827 5827 5827 5828 5829 5831 5833 5836 5839 5843 5846 5849 5853 5857 5860 5863 5867 5870 5874 5877 5880 5882 5885 5887 5889 5891 5892 5894 5896 5898
5851 5849 5846 5844 5841 5839 5836 5834 5831 5829 5828 5826 5825 5825 5825 5825 5826 5827 5828 5831 5833 5836 5840 5843 5847 5851 5854 5858 5861 5865 5869 5872 5875 5879 5881 5884 5886 5889 5891 5892 5895 5897 5899
5850 5848 5846 5843 5841 5838 5835 5833 5830 5828 5826 5824 5823 5822 5822 5823 5823 5825 5826 5828 5831 5834 5837 5841 5844 5848 5852 5856 5859 5863 5867 5870 5874 5877 5880 5882 5885 5887 5890 5892 5894 5897 5899
5850 5848 5846 5843 5841 5838 5835 5832 5830 5828 5825 5823 5822 5821 5821 5821 5822 5823 5824 5826 5829 5832 5835 5838 5842 5846 5850 5853 5857 5860 5864 5868 5871 5875 5878 5881 5883 5886 5889 5891 5894 5896 5898
5851 5848 5846 5843 5841 5838 5835 5832 5830 5828 5825 5823 5822 5821 5821 5821 5821 5822 5823 5825 5827 5830 5833 5836 5840 5844 5847 5851 5855 5858 5862 5865 5869 5872 5875 5878 5881 5884 5887 5890 5892 5895 5897
5851 5849 5846 5844 5841 5838 5835 5833 5831 5828 5826 5824 5822 5821 5821 5821 5821 5821 5822 5824 5826 5828 5831 5835 5838 5842 5846 5849 5853 5856 5860 5863 5866 5870 5872 5876 5878 5882 5885 5887 5890 5893 5895
5852 5850 5847 5845 5842 5839 5836 5834 5832 5829 5827 5825 5823 5822 5821 5821 5821 5821 5822 5824 5825 5828 5830 5833 5837 5840 5843 5847 5850 5854 5857 5861 5864 5867 5870 5873 5876 5879 5882 5885 5888 5890 5893
5853 5851 5848 5846 5843 5840 5838 5835 5833 5831 5828 5826 5825 5824 5823 5822 5822 5822 5823 5824 5825 5827 5829 5832 5835 5838 5841 5844 5847 5851 5854 5858 5861 5864 5867 5869 5872 5876 5879 5882 5884 5887 5890
5855 5852 5850 5847 5845 5842 5839 5837 5835 5832 5830 5828 5827 5825 5824 5824 5823 5823 5823 5824 5825 5827 5829 5831 5833 5836 5839 5842 5845 5848 5851 5854 5858 5861 5863 5866 5869 5872 5875 5878 5881 5884 5887
5856 5854 5852 5849 5846 5844 5841 5839 5836 5834 5832 5830 5829 5827 5826 5825 5825 5824 5824 5825 5825 5827 5828 5830 5832 5834 5837 5839 5842 5845 5848 5851 5854 5857 5860 5862 5865 5868 5871 5874 5877 5880 5882
5858 5856 5853 5851 5848 5846 5843 5841 5838 5836 5834 5833 5831 5829 5828 5827 5826 5826 5826 5826 5826 5827 5828 5829 5831 5833 5835 5837 5839 5842 5844 5847 5850 5853 5856 5858 5861 5864 5866 5869 5872 5875 5878
5859 5857 5855 5852 5850 5847 5845 5843 5840 5838 5836 5834 5832 5831 5829 5828 5827 5827 5826 5826 5827 5827 5828 5828 5830 5831 5832 5834 5836 5838 5841 5844 5846 5849 5852 5854 5856 5859 5861 5864 5867 5870 5872
5860 5858 5856 5853 5851 5849 5846 5844 5842 5839 5837 5835 5834 5832 5830 5829 5828 5827 5826 5826 5826 5826 5826 5827 5828 5829 5830 5831 5833 5835 5837 5839 5842 5844 5847 5849 5851 5854 5856 5859 5861 5864 5867
5860 5858 5856 5854 5851 5849 5847 5844 5842 5840 5838 5836 5834 5832 5831 5829 5828 5827 5826 5825 5825 5825 5825 5825 5826 5826 5827 5828 5830 5831 5833 5835 5837 5839 5842 5844 5846 5848 5851 5853 5856 5858 5861
5860 5858 5856 5854 5852 5849 5847 5844 5842 5840 5838 5836 5834 5832 5830 5829 5827 5826 5825 5824 5824 5823 5823 5823 5823 5824 5824 5825 5826 5827 5828 5830 5832 5834 5836 5838 5840 5842 5845 5847 5849 5852 5854
5859 5857 5855 5853 5851 5849 5846 5844 5841 5839 5837 5835 5833 5831 5829 5827 5826 5824 5823 5822 5821 5821 5820 5820 5820 5820 5820 5821 5822 5823 5824 5825 5826 5828 5830 5832 5834 5836 5838 5840 5842 5845 5847
5858 5856 5854 5852 5850 5848 5845 5843 5840 5838 5836 5833 5831 5829 5827 5825 5823 5822 5820 5819 5818 5817 5817 5817 5816 5816 5816 5816 5817 5818 5818 5819 5820 5822 5823 5825 5827 5829 5831 5833 5835 5838 5840
5856 5854 5852 5850 5848 5846 5843 5841 5838 5836 5833 5831 5829 5826 5824 5822 5820 5818 5816 5815 5814 5813 5812 5812 5811 5811 5811 5811 5811 5812 5812 5813 5814 5815 5816 5818 5819 5821 5823 5825 5827 5830 5832
5853 5851 5849 5847 5845 5843 5840 5837 5835 5832 5830 5828 5825 5822 5820 5818 5815 5813 5811 5809 5808 5807 5807 5806 5806 5805 5805 5805 5805 5805 5805 5806 5807 5808 5809 5810 5812 5813 5815 5817 5819 5821 5824
5850 5848 5846 5844 5841 5839 5836 5833 5831 5828 5825 5823 5820 5817 5815 5812 5809 5807 5804 5802 5800 5799 5799 5799 5799 5798 5798 5797 5797 5797 5797 5798 5799 5799 5800 5801 5803 5804 5806 5808 5810 5812 5814
5845 5843 5841 5839 5836 5834 5831 5828 5825 5822 5819 5817 5814 5811 5808 5805 5801 5798 5796 5793 5791 5790 5790 5789 5789 5789 5789 5788 5788 5788 5788 5789 5790 5790 5790 5792 5793 5795 5797 5798 5800 5802 5804
5840 5838 5836 5833 5831 5828 5825 5822 5819 5815 5812 5809 5806 5802 5799 5795 5792 5789 5785 5783 5781 5780 5779 5779 5779 5778 5778 5778 5778 5778 5778 5778 5779 5780 5780 5781 5783 5784 5786 5788 5790 5791 5794
5834 5832 5829 5827 5824 5821 5818 5814 5811 5808 5805 5801 5797 5793 5789 5785 5781 5777 5774 5772 5770 5769 5768 5768 5767 5767 5766 5766 5766 5766 5766 5766 5767 5768 5769 5769 5770 5772 5775 5777 5778 5780 5782